Location: Tafessasset
(32.5899°N, 5.4824°W)
Time: 10:09:58
(UTC+00:00)

Milstar 3 - Pass Details

Date: 18 February 2020
Orbit: 1101 x 5144 km, 28.2° (Epoch: 26 March)

Event Time Altitude Azimuth Distance (km) Brightness Sun altitude
Exits shadow 06:08:03 14° 273° (W) 5,451 5.6 -12.1°
Maximum altitude 06:21:13 55° 203° (SSW) 2,160 4.2 -9.4°
Drops below altitude 10° 06:29:21 10° 127° (SE) 3,378 6.4 -7.7°
Sets 06:31:46 0° 122° (ESE) 4,161 7.2 -7.2°
